Time,TemperatureF,DewpointF,PressureIn,WindDirection,WindDirectionDegrees,WindSpeedMPH,WindSpeedGustMPH,Humidity,HourlyPrecipIn,Conditions,Clouds,dailyrainin,SoftwareType,DateUTC
2013-08-22 00:11:00,73.0,47.0,27.87,NW,305,4.0,12.0,39,0.00,,,0.00,,2013-08-22 07:11:00,
2013-08-22 00:21:00,73.0,46.0,27.87,West,278,6.0,12.0,38,0.00,,,0.00,,2013-08-22 07:21:00,
2013-08-22 00:42:00,73.0,46.0,27.87,NW,323,6.0,14.0,38,0.00,,,0.00,,2013-08-22 07:42:00,
2013-08-22 00:52:00,72.0,45.0,27.88,North,349,0.0,6.0,38,0.00,,,0.00,,2013-08-22 07:52:00,
2013-08-22 01:12:00,70.0,46.0,27.88,NNW,328,3.0,8.0,42,0.00,,,0.00,,2013-08-22 08:12:00,
2013-08-22 01:22:00,72.0,47.0,27.88,West,276,6.0,10.0,41,0.00,,,0.00,,2013-08-22 08:22:00,
2013-08-22 01:43:00,72.0,46.0,27.88,WNW,299,6.0,14.0,40,0.00,,,0.00,,2013-08-22 08:43:00,
2013-08-22 01:53:00,72.0,46.0,27.88,West,277,2.0,10.0,39,0.00,,,0.00,,2013-08-22 08:53:00,
2013-08-22 02:11:00,72.0,48.0,27.88,WNW,284,4.0,10.0,42,0.00,,,0.00,,2013-08-22 09:11:00,
2013-08-22 02:22:00,71.0,46.0,27.88,WNW,293,4.0,11.0,41,0.00,,,0.00,,2013-08-22 09:22:00,
2013-08-22 02:43:00,72.0,46.0,27.89,WNW,290,5.0,10.0,40,0.00,,,0.00,,2013-08-22 09:43:00,
2013-08-22 02:53:00,71.0,47.0,27.89,West,269,5.0,9.0,43,0.00,,,0.00,,2013-08-22 09:53:00,
2013-08-22 03:12:00,69.0,48.0,27.89,ENE,70,0.0,5.0,47,0.00,,,0.00,,2013-08-22 10:12:00,
2013-08-22 03:22:00,66.0,47.0,27.89,SSW,212,0.0,1.0,50,0.00,,,0.00,,2013-08-22 10:22:00,
2013-08-22 03:42:00,68.0,46.0,27.89,NW,326,4.0,9.0,46,0.00,,,0.00,,2013-08-22 10:42:00,
2013-08-22 05:42:00,64.0,47.0,27.88,NW,319,2.0,7.0,53,0.00,,,0.00,,2013-08-22 12:42:00,
2013-08-22 05:52:00,64.0,47.0,27.88,NW,311,2.0,9.0,53,0.00,,,0.00,,2013-08-22 12:52:00,
2013-08-22 06:12:00,63.0,46.0,27.88,NW,309,3.0,8.0,54,0.00,,,0.00,,2013-08-22 13:12:00,
2013-08-22 06:22:00,63.0,46.0,27.88,NNW,332,3.0,7.0,54,0.00,,,0.00,,2013-08-22 13:22:00,
2013-08-22 06:52:00,63.0,46.0,27.89,NNE,20,2.0,7.0,53,0.00,,,0.00,,2013-08-22 13:52:00,
2013-08-22 07:11:00,63.0,47.0,27.89,NW,323,5.0,9.0,56,0.00,,,0.00,,2013-08-22 14:11:00,
2013-08-22 07:22:00,62.0,47.0,27.89,NNW,330,3.0,7.0,57,0.00,,,0.00,,2013-08-22 14:22:00,
2013-08-22 07:52:00,62.0,47.0,27.89,WNW,293,0.0,6.0,58,0.00,,,0.00,,2013-08-22 14:52:00,
2013-08-22 08:11:00,62.0,48.0,27.89,NE,37,1.0,4.0,60,0.00,,,0.00,,2013-08-22 15:11:00,
2013-08-22 08:22:00,63.0,48.0,27.89,NW,325,4.0,8.0,57,0.00,,,0.00,,2013-08-22 15:22:00,
2013-08-22 08:43:00,64.0,47.0,27.89,NNW,334,4.0,10.0,54,0.00,,,0.00,,2013-08-22 15:43:00,
2013-08-22 08:54:00,64.0,47.0,27.89,NW,316,3.0,7.0,55,0.00,,,0.00,,2013-08-22 15:54:00,
2013-08-22 09:14:00,65.0,48.0,27.89,WSW,250,2.0,10.0,54,0.00,,,0.00,,2013-08-22 16:14:00,
2013-08-22 09:24:00,65.0,49.0,27.88,NNE,13,1.0,4.0,56,0.00,,,0.00,,2013-08-22 16:24:00,
2013-08-22 09:43:00,65.0,49.0,27.88,North,356,0.0,3.0,57,0.00,,,0.00,,2013-08-22 16:43:00,
2013-08-22 09:54:00,67.0,50.0,27.88,ENE,70,0.0,1.0,55,0.00,,,0.00,,2013-08-22 16:54:00,
2013-08-22 10:12:00,68.0,50.0,27.87,NE,49,0.0,1.0,53,0.00,,,0.00,,2013-08-22 17:12:00,
2013-08-22 10:23:00,69.0,51.0,27.86,NNW,330,0.0,2.0,52,0.00,,,0.00,,2013-08-22 17:23:00,
2013-08-22 10:42:00,70.0,51.0,27.86,NNE,25,1.0,6.0,51,0.00,,,0.00,,2013-08-22 17:42:00,
2013-08-22 10:53:00,71.0,50.0,27.86,North,4,0.0,2.0,48,0.00,,,0.00,,2013-08-22 17:53:00,
2013-08-22 11:12:00,73.0,52.0,27.85,ESE,116,0.0,2.0,48,0.00,,,0.00,,2013-08-22 18:12:00,
2013-08-22 11:21:00,75.0,53.0,27.85,SE,139,0.0,2.0,47,0.00,,,0.00,,2013-08-22 18:21:00,
2013-08-22 11:43:00,76.0,55.0,27.84,NE,55,0.0,2.0,49,0.00,,,0.00,,2013-08-22 18:43:00,
2013-08-22 11:52:00,76.0,55.0,27.84,ESE,117,0.0,2.0,48,0.00,,,0.00,,2013-08-22 18:52:00,
2013-08-22 12:11:00,77.0,55.0,27.83,NNE,16,0.0,1.0,46,0.00,,,0.00,,2013-08-22 19:11:00,
2013-08-22 12:22:00,79.0,55.0,27.82,ESE,110,0.0,2.0,44,0.00,,,0.00,,2013-08-22 19:22:00,
2013-08-22 12:42:00,80.0,55.0,27.81,ESE,111,0.0,2.0,42,0.00,,,0.00,,2013-08-22 19:42:00,
2013-08-22 13:11:00,82.0,55.0,27.79,ESE,122,0.0,2.0,39,0.00,,,0.00,,2013-08-22 20:11:00,
2013-08-22 13:23:00,83.0,54.0,27.79,ESE,108,0.0,2.0,37,0.00,,,0.00,,2013-08-22 20:23:00,
2013-08-22 13:42:00,84.0,54.0,27.78,SE,126,0.0,2.0,36,0.00,,,0.00,,2013-08-22 20:42:00,
2013-08-22 13:52:00,85.0,53.0,27.77,SE,125,0.0,1.0,34,0.00,,,0.00,,2013-08-22 20:52:00,
2013-08-22 14:12:00,85.0,53.0,27.77,ESE,104,0.0,2.0,34,0.00,,,0.00,,2013-08-22 21:12:00,
2013-08-22 14:22:00,86.0,53.0,27.77,East,96,0.0,2.0,32,0.00,,,0.00,,2013-08-22 21:22:00,
2013-08-22 14:44:00,86.0,51.0,27.76,ENE,60,0.0,1.0,30,0.00,,,0.00,,2013-08-22 21:44:00,
2013-08-22 15:13:00,89.0,50.0,27.74,WNW,293,0.0,1.0,26,0.00,,,0.00,,2013-08-22 22:13:00,
2013-08-22 15:24:00,89.0,54.0,27.74,WNW,298,0.0,1.0,30,0.00,,,0.00,,2013-08-22 22:24:00,
2013-08-22 15:42:00,88.0,53.0,27.73,WNW,301,0.0,1.0,30,0.00,,,0.00,,2013-08-22 22:42:00,
2013-08-22 15:53:00,88.0,47.0,27.73,NW,326,2.0,4.0,24,0.00,,,0.00,,2013-08-22 22:53:00,
2013-08-22 16:11:00,87.0,47.0,27.72,NW,304,3.0,5.0,25,0.00,,,0.00,,2013-08-22 23:11:00,
2013-08-22 16:22:00,87.0,45.0,27.72,WNW,302,3.0,6.0,23,0.00,,,0.00,,2013-08-22 23:22:00,
2013-08-22 16:42:00,87.0,44.0,27.71,NW,314,1.0,3.0,22,0.00,,,0.00,,2013-08-22 23:42:00,
2013-08-22 16:52:00,87.0,44.0,27.71,WNW,299,0.0,3.0,22,0.00,,,0.00,,2013-08-22 23:52:00,
2013-08-22 17:11:00,87.0,45.0,27.71,NW,315,0.0,2.0,23,0.00,,,0.00,,2013-08-23 00:11:00,
2013-08-22 17:23:00,86.0,45.0,27.71,NW,315,0.0,1.0,24,0.00,,,0.00,,2013-08-23 00:23:00,
2013-08-22 17:42:00,85.0,51.0,27.70,NW,315,0.0,1.0,31,0.00,,,0.00,,2013-08-23 00:42:00,
2013-08-22 17:52:00,83.0,51.0,27.70,NW,315,0.0,0.0,33,0.00,,,0.00,,2013-08-23 00:52:00,
2013-08-22 18:11:00,82.0,51.0,27.69,NW,314,0.0,1.0,34,0.00,,,0.00,,2013-08-23 01:11:00,
2013-08-22 18:21:00,81.0,47.0,27.69,WNW,300,0.0,1.0,31,0.00,,,0.00,,2013-08-23 01:21:00,
2013-08-22 18:41:00,81.0,49.0,27.69,WNW,300,0.0,0.0,33,0.00,,,0.00,,2013-08-23 01:41:00,
2013-08-22 18:52:00,80.0,48.0,27.68,WNW,301,0.0,0.0,33,0.00,,,0.00,,2013-08-23 01:52:00,
2013-08-22 19:11:00,80.0,47.0,27.68,WNW,294,0.0,1.0,31,0.00,,,0.00,,2013-08-23 02:11:00,
2013-08-22 19:22:00,81.0,52.0,27.68,SE,139,0.0,2.0,36,0.00,,,0.00,,2013-08-23 02:22:00,
2013-08-22 19:42:00,80.0,47.0,27.68,South,176,0.0,1.0,31,0.00,,,0.00,,2013-08-23 02:42:00,
2013-08-22 19:52:00,79.0,48.0,27.69,North,352,0.0,2.0,34,0.00,,,0.00,,2013-08-23 02:52:00,
2013-08-22 20:11:00,79.0,49.0,27.69,North,7,0.0,1.0,35,0.00,,,0.00,,2013-08-23 03:11:00,
2013-08-22 20:22:00,80.0,49.0,27.69,SW,226,0.0,3.0,34,0.00,,,0.00,,2013-08-23 03:22:00,
2013-08-22 20:55:00,78.0,48.0,27.70,WNW,301,2.0,6.0,35,0.00,,,0.00,,2013-08-23 03:55:00,
2013-08-22 21:13:00,81.0,48.0,27.70,NW,309,3.0,8.0,32,0.00,,,0.00,,2013-08-23 04:13:00,
2013-08-22 21:24:00,81.0,48.0,27.70,WNW,302,2.0,6.0,32,0.00,,,0.00,,2013-08-23 04:24:00,
2013-08-22 21:43:00,81.0,48.0,27.69,WNW,300,2.0,5.0,32,0.00,,,0.00,,2013-08-23 04:43:00,
2013-08-22 21:54:00,81.0,47.0,27.69,WSW,257,3.0,9.0,31,0.00,,,0.00,,2013-08-23 04:54:00,
2013-08-22 22:13:00,81.0,47.0,27.70,NW,311,2.0,6.0,31,0.00,,,0.00,,2013-08-23 05:13:00,
2013-08-22 22:22:00,79.0,50.0,27.69,ENE,77,1.0,6.0,36,0.00,,,0.00,,2013-08-23 05:22:00,
2013-08-22 22:42:00,78.0,51.0,27.70,ENE,72,0.0,2.0,39,0.00,,,0.00,,2013-08-23 05:42:00,
2013-08-22 22:52:00,77.0,51.0,27.70,East,85,0.0,3.0,40,0.00,,,0.00,,2013-08-23 05:52:00,
2013-08-22 23:12:00,78.0,51.0,27.69,SSW,210,3.0,7.0,39,0.00,,,0.00,,2013-08-23 06:12:00,
2013-08-22 23:21:00,79.0,48.0,27.69,SW,236,4.0,14.0,34,0.00,,,0.00,,2013-08-23 06:21:00,
2013-08-22 23:41:00,80.0,49.0,27.69,NE,44,2.0,8.0,34,0.00,,,0.00,,2013-08-23 06:41:00,
2013-08-22 23:52:00,77.0,51.0,27.68,NNW,338,5.0,9.0,40,0.00,,,0.00,,2013-08-23 06:52:00,